K5GLH Weather Reports


time (UTC)temp
F
wind
direction
speed
knots
gust
knots
rain 1hr
in
rain 24hr
in
rain mn
in
humidity
%
barometer
mb
20260506025525 48 357 3.5 15.6 0.00 0.00 0.00 82 1010.7
20260506025026 49 11 7.0 15.6 0.00 0.00 0.00 82 1010.8
20260506024536 49 50 5.2 12.2 0.00 0.00 0.00 81 1010.8
20260506024021 49 59 7.0 12.2 0.00 0.00 0.00 81 1010.9
20260506023520 49 94 1.7 11.3 0.00 0.00 0.00 81 1010.8
20260506023019 49 357 4.3 12.2 0.00 0.00 0.00 81 1010.8
20260506022521 49 357 4.3 13.9 0.00 0.00 0.00 80 1010.8
20260506022017 49 357 7.0 15.6 0.00 0.00 0.00 80 1010.7
20260506021516 49 39 7.0 15.6 0.00 0.00 0.00 80 1010.7
20260506021012 49 34 4.3 14.8 0.00 0.00 0.00 80 1010.8
20260506020517 49 65 3.5 14.8 0.00 0.00 0.00 80 1010.7
20260506020010 49 150 6.1 13.9 0.00 0.00 0.00 80 1010.7
20260506015510 49 357 1.7 10.4 0.00 0.00 0.00 80 1010.6
20260506015009 49 44 3.5 12.2 0.00 0.00 0.00 80 1010.3
20260506014512 49 25 3.5 12.2 0.00 0.00 0.00 80 1010.4
20260506014007 49 50 5.2 11.3 0.00 0.00 0.00 80 1010.3
20260506013507 49 73 2.6 11.3 0.00 0.00 0.00 80 1010.1
20260506013008 49 357 4.3 11.3 0.00 0.00 0.00 80 1010.4
20260506012506 49 357 3.5 13.0 0.00 0.00 0.00 80 1010.2
20260506012003 49 357 4.3 13.0 0.00 0.00 0.00 80 1010.1
20260506011503 50 357 5.2 12.2 0.00 0.00 0.00 79 1010.2
20260506011001 50 28 4.3 10.4 0.00 0.00 0.00 79 1010.1
20260506010501 50 357 5.2 10.4 0.00 0.00 0.00 79 1009.8
20260506010100 50 71 2.6 8.7 0.00 0.00 0.00 79 1009.7
20260506005603 50 357 2.6 11.3 0.00 0.00 0.00 79 1009.4
20260506005058 50 43 2.6 11.3 0.00 0.00 0.00 78 1009.3
20260506004559 50 47 4.3 12.2 0.00 0.00 0.00 78 1009.2
20260506004056 50 63 3.5 13.0 0.00 0.00 0.00 77 1009.1
20260506003555 50 41 4.3 11.3 0.00 0.00 0.00 77 1009.0
20260506003057 50 357 4.3 13.0 0.00 0.00 0.00 76 1009.0
20260506002555 51 357 4.3 13.0 0.00 0.00 0.00 76 1008.8
20260506002054 51 357 5.2 12.2 0.00 0.00 0.00 75 1009.0
20260506001606 51 76 4.3 12.2 0.00 0.00 0.00 75 1008.9
20260506001053 51 44 5.2 12.2 0.00 0.00 0.00 74 1009.0
20260506000552 51 60 1.7 11.3 0.00 0.00 0.00 74 1008.9
20260506000053 51 29 4.3 11.3 0.00 0.00 0.00 74 1008.9
20260505235550 51 357 5.2 12.2 0.00 0.00 0.00 74 1008.8
20260505235050 52 357 6.1 14.8 0.00 0.00 0.00 74 1008.5
20260505234551 52 357 4.3 14.8 0.00 0.00 0.00 74 1008.4
20260505234051 52 56 3.5 13.9 0.00 0.00 0.00 74 1008.7
20260505233547 52 42 7.0 13.9 0.00 0.00 0.00 74 1008.5
20260505233046 52 71 5.2 12.2 0.00 0.00 0.00 74 1008.8
20260505232547 52 34 6.1 11.3 0.00 0.00 0.00 75 1008.7
20260505232046 52 18 4.3 11.3 0.00 0.00 0.00 75 1009.1
20260505231558 52 39 5.2 10.4 0.00 0.00 0.00 75 1008.9
20260505231044 52 55 4.3 13.0 0.00 0.00 0.00 75 1008.8
20260505230543 52 52 3.5 13.0 0.00 0.00 0.00 75 1009.0
20260505230054 52 76 5.2 12.2 0.00 0.00 0.00 75 1008.3
20260505225543 52 40 7.0 12.2 0.00 0.00 0.00 75 1008.4
20260505225044 52 357 5.2 11.3 0.00 0.00 0.00 75 1008.4
20260505224542 52 10 5.2 11.3 0.00 0.00 0.00 75 1008.4
20260505224041 52 357 1.7 10.4 0.00 0.00 0.00 75 1008.6
20260505223540 53 357 2.6 10.4 0.00 0.00 0.00 76 1008.3
20260505223040 52 16 4.3 13.0 0.00 0.00 0.00 75 1008.0
20260505222538 53 41 4.3 13.0 0.00 0.00 0.00 75 1008.0
20260505222028 53 52 5.2 12.2 0.00 0.00 0.00 75 1008.0
20260505221528 53 326 2.6 13.0 0.00 0.00 0.00 75 1007.9
20260505221025 53 320 4.3 13.9 0.00 0.00 0.00 75 1007.8
20260505220519 53 357 4.3 13.9 0.00 0.00 0.00 75 1007.9
20260505220026 53 67 7.0 13.0 0.00 0.00 0.00 75 1007.4
20260505215520 53 357 5.2 13.0 0.00 0.00 0.00 74 1007.3
20260505215016 53 49 3.5 13.0 0.00 0.00 0.00 75 1007.3
20260505214516 53 357 3.5 10.4 0.00 0.00 0.00 75 1007.3
20260505214017 53 357 4.3 12.2 0.00 0.00 0.00 75 1007.4
20260505213515 53 17 3.5 12.2 0.00 0.00 0.00 75 1007.5
20260505213014 54 75 5.2 13.0 0.00 0.00 0.00 75 1007.4
20260505212513 54 357 4.3 13.9 0.00 0.00 0.00 75 1007.6
20260505212012 54 71 4.3 13.9 0.00 0.00 0.00 75 1007.3
20260505211514 54 357 5.2 15.6 0.00 0.00 0.00 75 1006.5
20260505211011 55 357 7.0 15.6 0.00 0.00 0.00 75 1007.1
20260505210510 55 357 3.5 14.8 0.00 0.00 0.00 75 1005.9
20260505210014 54 357 3.5 13.9 0.00 0.00 0.00 76 1006.3
20260505205511 54 357 5.2 13.9 0.00 0.00 0.00 75 1006.8
20260505205014 54 54 5.2 13.0 0.00 0.00 0.00 76 1006.5
20260505204510 54 27 4.3 13.0 0.00 0.00 0.00 77 1006.8
20260505204009 54 357 4.3 13.0 0.00 0.00 0.00 77 1007.0
20260505203509 54 357 3.5 10.4 0.00 0.00 0.00 79 1006.9
20260505203013 54 37 4.3 13.0 0.00 0.00 0.00 78 1006.9
20260505202508 54 43 6.1 13.0 0.00 0.00 0.00 79 1007.2
20260505202007 54 357 3.5 12.2 0.00 0.00 0.00 80 1006.9
20260505201512 54 357 4.3 12.2 0.00 0.00 0.00 80 1006.9
20260505201006 54 357 5.2 13.9 0.00 0.00 0.00 80 1006.9
20260505200503 54 75 6.1 13.9 0.00 0.00 0.00 79 1006.5
20260505200002 55 2 3.5 10.4 0.00 0.00 0.00 80 1006.2
20260505195501 55 72 5.2 13.0 0.00 0.00 0.00 80 1006.4
20260505195001 55 357 5.2 13.9 0.00 0.00 0.00 80 1006.3
20260505194600 55 68 7.0 16.5 0.00 0.00 0.00 79 1005.9
20260505194059 55 357 6.1 16.5 0.00 0.00 0.00 79 1006.2
20260505193602 56 53 3.5 9.6 0.00 0.00 0.00 80 1006.4
20260505193058 55 357 3.5 12.2 0.00 0.00 0.00 80 1006.3
20260505192557 55 357 6.1 11.3 0.00 0.00 0.00 80 1006.4
20260505192057 55 46 5.2 12.2 0.00 0.00 0.00 79 1006.3
20260505191613 56 29 6.1 13.0 0.00 0.00 0.00 79 1006.2
20260505191056 56 314 6.1 13.0 0.00 0.00 0.00 79 1006.0
20260505190555 56 357 5.2 13.0 0.00 0.00 0.00 79 1005.8
20260505190055 56 357 4.3 13.0 0.00 0.00 0.00 79 1005.7
20260505185558 56 357 5.2 13.0 0.00 0.00 0.00 80 1005.9
20260505185054 56 357 6.1 13.0 0.00 0.00 0.00 80 1005.8
20260505184554 56 2 3.5 13.0 0.00 0.00 0.00 81 1005.7
20260505184054 56 357 7.8 14.8 0.00 0.00 0.00 80 1005.9
20260505183655 56 357 7.0 14.8 0.00 0.00 0.00 80 1005.9
20260505183050 56 357 3.5 13.0 0.00 0.00 0.00 81 1005.9
20260505182548 56 62 3.5 10.4 0.00 0.00 0.00 81 1005.6
20260505182052 56 36 4.3 10.4 0.00 0.00 0.00 81 1005.6
20260505181547 56 27 5.2 14.8 0.00 0.00 0.00 81 1005.2
20260505181046 56 13 7.0 17.4 0.00 0.00 0.00 80 1005.1
20260505180544 56 357 5.2 13.9 0.00 0.00 0.00 80 1005.0
20260505180058 56 357 5.2 17.4 0.00 0.00 0.00 80 1005.0
20260505175542 57 357 5.2 17.4 0.00 0.00 0.00 80 1004.9
20260505175041 57 357 5.2 15.6 0.00 0.00 0.00 81 1004.8
20260505174551 57 357 5.2 14.8 0.00 0.00 0.00 81 1004.7
20260505174041 57 357 5.2 14.8 0.00 0.00 0.00 81 1004.8
20260505173538 57 357 7.0 14.8 0.00 0.00 0.00 81 1004.8
20260505173039 57 52 5.2 15.6 0.00 0.00 0.00 82 1004.6
20260505172537 57 357 4.3 15.6 0.00 0.00 0.00 82 1004.7
20260505172036 57 68 2.6 13.9 0.00 0.00 0.00 82 1004.4
20260505171535 57 357 6.1 13.9 0.00 0.00 0.00 82 1004.5
20260505171035 57 357 5.2 18.2 0.00 0.00 0.00 81 1004.3
20260505170536 57 357 5.2 18.2 0.00 0.00 0.00 81 1004.2
20260505170032 58 62 7.0 16.5 0.00 0.00 0.00 81 1003.8
20260505165532 59 357 6.1 14.8 0.00 0.00 0.00 80 1003.8
20260505165031 59 357 4.3 14.8 0.00 0.00 0.00 80 1003.7
20260505164528 60 21 7.0 16.5 0.00 0.00 0.00 81 1003.7
20260505164029 61 357 5.2 16.5 0.00 0.00 0.00 81 1003.5
20260505163525 61 357 7.0 13.9 0.00 0.00 0.00 80 1003.3
20260505163028 62 357 4.3 15.6 0.00 0.00 0.00 80 1003.2
20260505162522 62 6 4.3 15.6 0.00 0.00 0.00 80 1003.0
20260505162020 63 25 4.3 11.3 0.00 0.00 0.00 80 1002.6
20260505161519 63 357 3.5 14.8 0.00 0.00 0.00 80 1002.5
20260505161018 64 58 5.2 15.6 0.00 0.00 0.00 80 1002.0
20260505160518 64 357 4.3 14.8 0.00 0.00 0.00 79 1001.8
20260505153012 71 341 2.6 9.6 0.00 0.00 0.00 79 1000.9
20260505152513 72 357 5.2 10.4 0.00 0.00 0.00 77 1001.0
20260505152008 73 357 1.7 4.3 0.00 0.00 0.00 74 1000.7
20260505151507 73 21 0.9 3.5 0.00 0.00 0.00 74 1000.5
20260505151006 73 33 0.9 3.5 0.00 0.00 0.00 74 1000.4
20260505150505 73 88 0.0 0.0 0.00 0.00 0.00 75 1000.2
20260505140556 72 81 0.0 0.0 0.00 0.00 0.00 76 999.8
20260505125034 69 78 0.0 1.7 0.00 0.00 0.00 80 999.6
20260505124632 69 79 0.0 1.7 0.00 0.00 0.00 80 999.5
20260505124032 69 79 0.0 1.7 0.00 0.00 0.00 79 999.5
20260505123533 69 78 0.9 1.7 0.00 0.00 0.00 79 999.5
20260505123034 69 183 0.0 1.7 0.00 0.00 0.00 79 999.4
20260505122530 69 183 0.0 3.5 0.00 0.00 0.00 79 999.3
20260505122032 69 183 0.9 3.5 0.00 0.00 0.00 78 999.1
20260505121529 70 182 0.0 3.5 0.00 0.00 0.00 78 998.9
20260505121030 70 182 0.0 4.3 0.00 0.00 0.00 78 998.7
20260505120531 70 182 1.7 4.3 0.00 0.00 0.00 78 998.5
20260505120030 70 167 1.7 5.2 0.00 0.00 0.00 78 998.5
20260505115526 70 180 2.6 7.0 0.00 0.00 0.00 78 998.5
20260505115026 70 214 2.6 7.0 0.00 0.00 0.00 78 998.4
20260505114626 70 137 1.7 5.2 0.00 0.00 0.00 77 998.2
20260505114128 70 158 2.6 5.2 0.00 0.00 0.00 77 998.1
20260505113536 70 152 2.6 6.1 0.00 0.00 0.00 77 997.9
20260505113041 70 179 1.7 8.7 0.00 0.00 0.00 77 997.8
20260505112536 70 137 2.6 8.7 0.00 0.00 0.00 77 997.7
20260505112039 70 158 0.9 7.0 0.00 0.00 0.00 77 997.6
20260505111535 70 156 1.7 7.0 0.00 0.00 0.00 77 997.3
20260505111035 70 220 2.6 6.1 0.00 0.00 0.00 77 997.5
20260505110538 70 163 2.6 6.1 0.00 0.00 0.00 77 997.6
20260505102030 71 171 5.2 12.2 0.00 0.00 0.00 76 997.3
20260505101548 71 177 3.5 10.4 0.00 0.00 0.00 75 997.4
20260505101032 71 160 3.5 8.7 0.00 0.00 0.00 75 997.4
20260505100529 71 194 3.5 8.7 0.00 0.00 0.00 75 997.4
20260505100052 71 172 2.6 10.4 0.00 0.00 0.00 75 997.4
20260505095531 71 184 4.3 9.6 0.00 0.00 0.00 75 997.3
20260505095028 71 154 4.3 10.4 0.00 0.00 0.00 75 997.2
20260505094531 71 183 5.2 10.4 0.00 0.00 0.00 75 997.2
20260505094028 71 137 4.3 10.4 0.00 0.00 0.00 75 997.3
20260505093528 71 152 5.2 10.4 0.00 0.00 0.00 75 997.4
20260505093027 71 176 3.5 9.6 0.00 0.00 0.00 75 997.4
20260505092527 71 357 3.5 9.6 0.00 0.00 0.00 75 997.3
20260505092025 71 186 5.2 8.7 0.00 0.00 0.00 75 997.3
20260505091526 71 194 4.3 8.7 0.00 0.00 0.00 75 997.5
20260505091025 71 173 3.5 8.7 0.00 0.00 0.00 75 997.5
20260505090525 71 182 3.5 7.0 0.00 0.00 0.00 75 997.5
20260505090026 71 140 3.5 9.6 0.00 0.00 0.00 75 997.6
20260505085524 71 174 3.5 8.7 0.00 0.00 0.00 75 997.7
20260505085024 71 168 3.5 8.7 0.00 0.00 0.00 75 997.7
20260505084524 71 166 3.5 9.6 0.00 0.00 0.00 75 997.7
20260505084024 71 158 3.5 8.7 0.00 0.00 0.00 75 997.6
20260505083524 71 159 4.3 8.7 0.00 0.00 0.00 75 997.6
20260505083024 71 173 3.5 9.6 0.00 0.00 0.00 75 997.7
20260505082521 71 156 5.2 10.4 0.00 0.00 0.00 76 997.8
20260505082021 71 165 5.2 10.4 0.00 0.00 0.00 76 997.8
20260505081521 71 181 4.3 12.2 0.00 0.00 0.00 76 997.9
20260505081003 71 205 4.3 12.2 0.00 0.00 0.00 75 997.9
20260505080502 71 179 3.5 11.3 0.00 0.00 0.00 75 997.9
20260505080001 71 199 6.1 11.3 0.00 0.00 0.00 75 998.0
20260505075601 71 172 5.2 12.2 0.00 0.00 0.00 75 998.0
20260505075102 71 181 7.0 10.4 0.00 0.00 0.00 75 998.1
20260505074559 71 172 6.1 12.2 0.00 0.00 0.00 75 998.1
20260505074059 71 172 4.3 13.0 0.00 0.00 0.00 75 998.3
20260505073559 71 116 6.1 12.2 0.00 0.00 0.00 75 998.2
20260505073104 71 162 5.2 12.2 0.00 0.00 0.00 75 998.2
20260505072557 71 172 6.1 13.0 0.00 0.00 0.00 75 998.3
20260505072057 71 183 5.2 12.2 0.00 0.00 0.00 75 998.5
20260505071558 71 183 5.2 12.2 0.00 0.00 0.00 75 998.5
20260505071056 71 357 6.1 13.0 0.00 0.00 0.00 75 998.5
20260505070556 71 163 3.5 11.3 0.00 0.00 0.00 75 998.5
20260505070059 71 164 4.3 13.0 0.00 0.00 0.00 75 998.6
20260505065555 71 149 5.2 13.9 0.00 0.00 0.00 75 998.7
20260505065054 71 175 5.2 16.5 0.00 0.00 0.00 75 998.7
20260505064553 71 198 7.8 16.5 0.00 0.00 0.00 75 998.7
20260505064054 71 191 6.1 16.5 0.00 0.00 0.00 75 998.7
20260505063552 71 168 6.1 13.9 0.00 0.00 0.00 75 998.9
20260505063055 71 163 7.0 12.2 0.00 0.00 0.00 75 999.0
20260505062550 71 140 5.2 11.3 0.00 0.00 0.00 75 999.0
20260505062049 71 169 7.0 11.3 0.00 0.00 0.00 75 999.1
20260505061550 71 199 6.1 11.3 0.00 0.00 0.00 75 999.1
20260505061048 71 185 5.2 12.2 0.00 0.00 0.00 75 999.2
20260505060548 71 172 4.3 9.6 0.00 0.00 0.00 74 999.2
20260505060048 72 148 6.1 13.0 0.00 0.00 0.00 74 999.3
20260505055547 72 208 5.2 13.0 0.00 0.00 0.00 74 999.3
20260505055048 72 123 2.6 11.3 0.00 0.00 0.00 74 999.4
20260505054548 72 196 6.1 11.3 0.00 0.00 0.00 74 999.4
20260505054045 72 187 6.1 11.3 0.00 0.00 0.00 74 999.4
20260505053544 72 357 5.2 13.0 0.00 0.00 0.00 73 999.4
20260505053047 72 114 6.1 13.9 0.00 0.00 0.00 73 999.4
20260505052543 72 186 7.0 13.9 0.00 0.00 0.00 74 999.4
20260505052042 72 182 4.3 11.3 0.00 0.00 0.00 73 999.6
20260505051543 72 156 6.1 11.3 0.00 0.00 0.00 73 999.5
20260505051042 72 187 5.2 12.2 0.00 0.00 0.00 73 999.5
20260505050539 72 149 6.1 13.0 0.00 0.00 0.00 73 999.5
20260505041537 72 232 7.0 14.8 0.00 0.00 0.00 72 999.9
20260505041036 72 131 4.3 13.0 0.00 0.00 0.00 72 999.8
20260505040536 73 357 6.1 12.2 0.00 0.00 0.00 72 999.9
20260505040036 72 166 5.2 15.6 0.00 0.00 0.00 72 999.9
20260505035535 73 185 5.2 15.6 0.00 0.00 0.00 72 1000.0
20260505035035 73 163 5.2 11.3 0.00 0.00 0.00 72 999.9
20260505034535 73 177 5.2 13.0 0.00 0.00 0.00 71 999.8
20260505034034 73 145 7.0 12.2 0.00 0.00 0.00 72 999.9
20260505033535 73 129 6.1 15.6 0.00 0.00 0.00 71 999.9
20260505033034 73 135 7.8 15.6 0.00 0.00 0.00 71 999.9
20260505032535 73 178 6.1 13.0 0.00 0.00 0.00 71 999.9
20260505032033 73 177 7.0 15.6 0.00 0.00 0.00 70 999.8
20260505031538 74 172 6.1 13.0 0.00 0.00 0.00 70 999.8
20260505031034 74 164 7.0 12.2 0.00 0.00 0.00 70 999.8
20260505030533 74 189 6.1 14.8 0.00 0.00 0.00 69 999.8
20260505030033 74 185 5.2 14.8 0.00 0.00 0.00 69 999.9